{"data":{"norad_id":68678,"epoch":"2026-09-19T21:45:29.369952Z","epoch_age_seconds":95194,"freshness":"FRESH","line1":"1 68678U 26077S   26262.90658993  .00011261  00000+0  35056-3 0  9996","line2":"2 68678  97.2846 132.8352 0002046  94.5471 265.6005 15.33450005 24926","mean_motion":15.33450005,"eccentricity":0.0002046,"inclination_deg":97.2846,"raan_deg":132.8352,"arg_perigee_deg":94.5471,"mean_anomaly_deg":265.6005,"bstar":0.00035056,"rev_number":2492,"period_min":93.905898158056,"perigee_km":464.12806924302,"apogee_km":466.92849707689,"semimajor_km":6843.66528316,"source":"CELESTRAK","updated_at":"2026-09-20T09:00:43.953266Z"}}